Lapse_Rate
5.7 5.8 5.9 5.9 6.1 6.2 6.2 6.2 6.4 6.4 6.5 6.4 6.3 6.4 6.6 6.9 7.0 7.1 6.9 7.3 7.2 7.4 7.6 7.6 7.5 7.5 7.7 5.8 5.4 6.2 6.2 6.4 6.5 6.1 7.2 7.7 7.3 6.4 6.9 5.8 5.6 5.5 6.0 5.9 5.5
5.7 5.7 5.7 5.8 6.0 6.1 6.2 6.2 6.3 6.3 6.3 6.4 6.4 6.4 6.4 6.7 6.9 7.0 7.3 7.2 7.2 7.3 7.6 7.7 7.5 7.5 7.8 6.7 5.6 6.2 6.1 5.9 6.5 6.1 6.6 7.3 7.6 7.0 6.9 5.9 6.0 5.9 5.8 5.6 5.4
5.7 5.7 5.6 5.7 5.8 5.8 6.0 6.1 6.3 6.3 6.3 6.3 6.3 6.4 6.4 6.4 6.6 7.1 7.0 7.2 7.2 7.2 7.4 7.7 7.5 7.0 8.0 6.8 6.5 6.8 6.2 6.3 6.8 7.7 6.4 6.5 6.9 6.9 6.6 6.2 6.5 6.7 6.2 5.8 5.3
5.5 5.5 5.4 5.5 5.7 5.9 6.1 6.2 6.2 6.2 6.2 6.3 6.3 6.2 6.2 6.3 6.0 6.7 6.9 7.1 7.1 7.1 7.1 7.5 7.8 6.9 7.1 6.9 6.9 7.2 7.5 7.1 7.2 7.3 7.2 6.9 7.5 7.0 7.2 6.4 6.4 6.3 6.4 6.0 5.6
5.1 5.1 5.2 5.3 5.5 5.7 5.8 6.1 6.1 6.1 6.1 6.2 6.3 6.1 6.1 6.3 6.0 6.2 6.7 6.8 6.9 7.0 7.0 7.4 7.5 7.1 7.3 7.5 7.2 7.8 8.0 8.2 7.7 8.1 8.4 8.4 7.6 7.6 7.3 6.6 6.5 6.2 6.1 5.9 5.8
4.9 5.0 4.9 5.1 5.6 5.9 5.9 5.7 6.1 6.2 6.1 6.0 6.2 6.2 6.2 6.4 5.6 6.1 6.8 6.7 6.9 6.8 6.9 7.0 7.2 7.0 7.4 7.7 7.8 8.2 8.3 8.8 8.1 8.3 8.7 7.4 7.4 7.3 6.6 7.0 6.9 6.1 6.0 5.4 5.3
4.8 4.8 4.8 5.3 5.6 5.8 6.0 6.0 6.3 6.1 6.1 6.1 6.0 6.3 6.3 6.3 5.7 5.7 6.7 6.7 6.7 6.7 6.7 6.8 6.8 6.9 7.4 7.8 8.0 7.8 7.9 7.9 8.2 8.6 8.8 8.4 7.3 7.1 6.5 6.7 6.6 6.2 5.8 5.1 4.7
4.8 4.8 4.9 5.4 5.7 5.8 5.9 5.9 6.2 6.1 6.3 6.2 6.1 6.3 6.4 6.5 6.0 6.2 6.6 6.6 6.7 6.8 6.4 6.4 6.3 6.8 7.0 7.4 7.9 7.8 8.1 8.1 8.4 9.1 9.0 8.7 7.5 6.6 5.8 5.8 6.2 5.9 5.7 4.9 4.7
4.9 4.9 5.0 5.4 5.8 5.9 5.8 5.9 6.0 6.2 6.6 6.5 6.2 6.4 6.4 6.4 6.0 6.2 6.4 6.5 6.5 6.6 6.6 6.0 6.0 6.3 6.8 7.1 7.4 7.8 7.8 8.3 8.4 9.0 8.9 8.6 7.6 6.7 7.0 6.3 6.3 5.9 5.4 4.9 4.9
5.0 5.1 5.1 5.3 5.8 5.9 5.8 5.9 5.9 6.2 6.5 6.4 6.3 6.4 6.1 6.2 5.8 5.9 6.2 6.2 6.1 6.4 6.3 5.9 6.1 6.3 6.4 6.8 7.0 7.8 8.1 8.4 8.8 8.9 9.3 8.9 8.1 7.3 7.1 6.7 6.4 6.0 5.7 5.1 4.9
5.2 5.2 5.3 5.5 5.7 5.9 5.8 5.9 5.9 6.1 6.1 6.5 6.5 6.0 6.1 6.0 6.0 6.1 5.8 5.7 5.9 5.9 6.1 6.0 6.2 6.0 6.4 6.8 7.3 8.0 8.4 8.8 9.2 9.4 9.4 8.8 8.0 7.8 7.3 7.3 5.7 5.9 5.8 5.8 5.1
5.3 5.4 5.4 5.6 5.8 5.9 5.9 6.0 5.9 6.1 6.5 6.4 6.9 6.4 6.3 6.3 6.4 6.4 6.1 5.9 5.9 6.0 6.1 6.3 6.2 6.6 6.8 7.1 7.6 8.0 8.1 8.7 9.1 9.4 8.9 8.6 8.8 8.6 7.9 7.8 6.2 6.1 6.2 5.9 5.9
5.5 5.6 5.5 5.7 5.8 5.8 6.0 5.9 6.0 6.0 6.5 6.7 7.0 6.7 6.7 7.0 6.9 6.5 6.5 6.0 6.0 6.2 6.3 6.3 6.6 7.1 7.2 7.4 7.8 8.1 8.2 8.7 9.1 9.2 8.8 8.2 8.1 7.8 7.3 6.9 6.6 6.3 7.0 6.5 6.3
5.6 5.7 5.8 6.0 6.0 5.9 6.3 6.1 6.1 6.2 6.7 6.9 7.0 7.2 7.3 7.6 7.3 7.1 6.9 6.6 6.4 6.4 6.5 6.6 7.0 7.3 7.8 7.5 7.9 8.2 8.5 8.9 9.2 9.7 8.6 8.2 7.9 7.9 8.0 7.2 7.3 6.3 5.8 6.3 6.3
5.7 5.6 5.9 6.2 6.2 6.1 6.1 6.3 6.5 6.6 6.6 7.8 7.2 7.8 7.8 8.0 7.7 7.7 7.2 7.0 6.9 6.9 7.0 6.9 7.2 7.4 7.6 8.0 8.0 7.9 8.7 9.0 9.3 9.3 9.3 8.5 7.7 8.0 8.2 7.3 7.5 7.3 6.2 5.8 6.6
5.7 5.8 6.0 6.4 6.4 6.4 6.4 6.5 6.8 6.9 7.8 8.6 8.5 8.2 8.2 8.2 8.3 7.9 8.0 7.7 7.5 7.2 7.1 7.1 7.5 8.0 7.9 8.3 8.5 8.4 8.7 8.7 9.0 9.3 8.7 8.1 8.0 7.8 7.7 8.7 8.2 7.6 7.9 6.6 6.4
5.7 5.8 6.2 6.5 6.7 6.6 6.6 6.8 6.7 7.5 9.3 9.4 9.1 8.8 8.7 8.7 8.8 8.8 8.3 8.1 7.9 7.7 7.5 7.4 7.6 8.0 8.7 8.7 8.6 8.7 8.5 8.3 7.7 7.9 7.2 9.2 9.3 8.9 9.0 8.7 8.4 8.5 7.3 6.6 6.4
5.9 6.1 6.4 6.7 6.8 6.9 6.7 6.9 7.0 8.4 9.1 9.2 9.3 9.2 9.2 9.4 9.7 9.6 8.9 8.6 8.5 8.3 8.4 8.9 8.5 8.3 8.7 8.7 8.8 8.9 8.3 8.3 6.7 7.1 7.8 9.0 9.0 9.2 9.4 9.3 8.9 8.6 8.1 7.1 6.5
6.1 6.3 6.6 6.8 7.0 7.3 7.0 7.0 8.2 8.0 7.8 8.2 8.7 9.0 9.2 9.4 9.6 9.6 9.4 9.5 9.3 9.3 8.6 8.6 8.4 9.2 9.3 9.4 9.2 8.9 8.8 8.4 8.6 8.7 8.7 9.2 9.2 9.6 9.0 8.9 8.8 8.8 8.6 8.4 7.7
6.1 6.6 7.0 7.2 7.1 7.3 7.3 7.8 7.9 7.5 8.1 8.5 8.6 9.1 8.9 9.4 9.3 9.5 9.3 9.4 9.2 8.9 8.4 8.5 7.9 8.8 9.1 9.6 9.3 9.1 8.5 8.8 8.8 7.4 7.9 9.4 9.2 9.1 8.7 8.8 8.8 8.6 8.1 8.5 8.2
6.2 6.3 6.8 6.7 7.1 7.4 7.6 7.9 8.0 7.7 8.1 8.0 8.2 8.4 8.4 8.9 9.0 9.2 9.4 9.1 8.9 8.4 8.5 8.7 8.0 8.7 8.9 9.3 9.5 8.9 8.6 8.3 8.5 8.8 7.5 7.3 8.8 9.2 9.2 9.0 9.1 8.4 8.1 8.3 7.4
6.3 6.3 6.7 7.0 7.3 7.4 7.9 8.0 8.3 7.9 7.8 7.9 8.2 8.3 8.3 8.3 8.2 9.2 9.0 9.0 8.5 8.2 8.5 8.5 8.1 8.3 8.5 9.0 9.1 9.4 9.1 8.5 8.4 8.5 8.9 8.9 9.0 8.9 8.8 8.8 8.3 8.6 8.2 8.0 8.5
6.6 6.7 6.9 7.4 7.3 7.7 7.9 8.0 8.0 7.9 7.8 7.8 8.0 7.9 7.9 8.0 7.9 8.4 8.5 8.3 7.9 7.9 8.0 8.2 8.1 8.1 8.4 8.9 9.3 9.5 9.4 9.2 8.8 8.8 8.7 8.2 8.8 9.8 8.9 8.8 8.3 7.8 7.6 7.6 7.9
6.7 6.8 7.1 7.4 7.4 7.6 7.6 8.1 7.9 7.6 7.8 7.2 7.8 7.5 7.5 7.7 7.9 8.0 8.4 7.8 7.6 7.2 7.5 7.7 8.0 7.7 7.5 8.0 8.2 8.7 9.1 9.3 9.0 8.8 8.6 8.8 9.0 9.2 9.3 8.7 7.3 8.1 8.1 7.2 7.0
6.6 6.6 7.0 7.1 7.4 7.7 7.5 7.6 8.1 7.3 7.1 7.3 7.5 7.4 7.3 7.4 7.6 7.5 7.7 8.0 7.7 7.4 7.3 7.7 8.1 8.0 7.5 7.8 8.2 8.5 8.9 9.1 9.3 9.1 8.7 8.8 9.2 9.2 9.3 9.5 8.7 8.3 8.0 7.8 7.7
6.7 6.9 7.2 7.3 7.3 7.5 7.4 7.4 7.9 7.5 7.4 7.1 6.9 6.8 7.2 6.8 6.7 7.1 7.1 7.2 7.4 7.1 7.0 7.3 7.4 7.6 7.4 7.9 8.1 8.3 8.7 9.0 9.3 9.2 9.0 8.7 9.1 9.2 8.7 8.4 7.8 7.9 8.3 8.2 8.4
7.0 7.2 7.5 7.3 7.5 7.4 7.2 7.2 7.3 7.1 7.0 6.8 6.9 6.8 7.1 7.1 7.0 7.3 7.2 7.3 7.0 6.8 6.8 7.1 6.9 7.3 7.2 7.8 8.1 8.2 8.5 8.9 9.1 9.3 9.1 9.1 8.9 8.2 7.1 7.6 7.5 7.5 7.5 8.1 8.8
Wind_Speed
22 23 22 22 22 22 23 23 24 25 24 26 27 25 23 23 25 4 5 6 5 17 5 3 8 12 12 9 10 7 3 3 5 5 2 9 21 18 10 25 21 9 21 19 14
23 23 24 24 22 22 22 24 23 23 26 26 26 24 23 21 7 10 8 9 8 13 4 6 9 11 6 7 8 4 1 5 9 8 9 7 14 10 10 21 20 23 20 18 13
23 24 25 25 26 25 23 22 24 24 24 25 25 24 21 19 6 3 8 9 9 10 5 9 13 10 9 10 6 10 7 14 15 18 7 12 9 8 6 20 26 26 24 19 13
24 24 25 25 26 27 26 24 24 25 24 22 23 23 19 4 2 4 8 7 8 6 6 5 8 9 8 10 4 7 8 11 8 12 14 22 9 6 16 21 25 24 23 20 15
26 27 27 26 26 27 28 27 26 25 23 22 19 17 7 4 9 9 10 8 7 5 7 11 9 8 9 9 6 4 6 9 13 14 15 14 14 10 21 26 24 21 20 19 16
26 27 27 28 28 27 28 27 26 26 22 19 15 10 3 5 6 14 10 9 7 7 8 12 8 9 9 9 8 6 10 9 11 14 15 15 13 11 19 27 26 21 17 16 14
26 27 29 29 30 29 28 28 28 26 22 16 12 4 5 15 7 10 7 7 8 9 9 11 13 6 5 9 9 5 10 7 20 11 13 15 6 13 19 22 24 21 17 16 11
27 27 28 29 30 30 29 28 28 25 20 12 5 5 7 6 16 19 6 8 10 9 12 12 9 8 4 8 9 8 7 5 11 9 15 11 8 18 20 22 21 20 17 14 8
27 28 29 30 30 30 30 31 29 22 14 7 3 4 7 2 5 8 5 9 9 8 5 13 4 5 8 4 5 6 6 10 16 11 16 10 18 15 22 19 20 20 17 14 10
28 29 31 31 32 30 32 33 16 7 6 6 9 6 7 10 6 9 10 9 7 7 8 7 1 3 4 2 7 8 8 9 11 10 13 14 14 16 18 20 19 18 18 15 14
27 30 31 32 31 27 15 5 2 1 4 7 5 5 9 3 4 3 5 10 8 5 6 7 4 7 10 10 10 13 10 12 10 5 4 16 17 15 14 11 16 16 17 16 14
29 31 31 33 33 27 6 3 6 6 8 13 17 18 8 4 4 9 8 5 6 7 8 6 10 10 11 13 15 16 15 14 10 12 10 11 13 15 13 12 8 18 16 16 14
29 31 32 34 37 10 5 3 6 7 3 9 11 9 8 6 6 8 10 10 6 9 9 10 9 16 16 12 14 14 9 9 7 8 16 11 4 2 2 6 7 8 17 15 15
29 30 31 36 6 7 3 7 6 6 2 5 7 5 5 5 6 14 10 8 6 11 12 8 15 16 15 14 9 9 9 14 13 3 6 11 5 4 3 1 9 6 8 11 15
29 29 31 14 7 5 5 6 5 2 4 13 8 3 7 7 3 3 3 6 10 9 6 10 15 13 15 15 12 8 11 8 12 6 5 5 2 6 5 10 10 18 12 18 18
30 27 26 2 4 9 17 7 2 2 4 7 7 8 6 6 10 5 4 5 6 8 12 9 10 15 15 12 12 13 8 7 7 3 4 16 14 5 8 18 15 19 23 21 20
33 33 13 9 4 15 11 4 1 3 2 4 2 4 9 10 11 7 8 7 5 3 6 10 12 13 11 8 6 6 2 2 4 3 6 8 6 8 24 18 20 20 16 10 17
37 38 7 9 13 12 5 3 3 10 13 5 7 7 7 10 8 7 6 6 10 9 6 6 7 9 10 8 7 8 8 5 7 4 6 9 11 7 16 19 17 15 15 8 11
35 3 3 6 20 9 2 3 3 6 9 10 11 6 7 10 3 3 4 5 6 6 0 6 6 16 11 6 7 7 4 9 5 9 2 6 8 5 12 15 18 9 12 14 10
6 4 6 14 17 3 1 4 4 9 9 7 5 6 10 9 7 4 4 4 5 8 7 6 6 6 12 6 7 7 6 4 2 4 4 6 6 5 13 15 15 18 12 13 15
2 3 2 6 4 2 3 5 7 10 6 6 8 7 12 10 1 10 7 12 15 10 8 5 0 10 8 3 7 4 9 4 2 5 5 3 3 3 8 4 6 6 9 17 29
4 3 4 2 2 4 4 2 4 7 2 2 4 5 7 11 7 10 8 5 8 7 6 6 3 5 10 14 14 11 9 9 4 8 3 4 4 8 11 13 5 13 3 5 8
4 4 3 3 2 3 1 2 4 8 10 8 8 10 9 6 5 8 4 5 6 6 4 6 5 3 10 7 9 6 9 7 5 3 6 4 2 7 8 12 14 15 6 6 10
3 3 1 1 3 6 8 6 8 7 7 7 8 8 4 8 7 5 6 5 3 5 5 1 3 2 4 10 12 10 13 9 5 4 5 5 6 2 7 10 19 4 9 12 10
3 3 2 4 6 6 5 7 8 8 6 3 5 7 9 6 8 9 12 10 4 9 3 1 4 6 10 13 13 12 16 12 9 8 5 4 7 11 12 15 8 9 12 10 13
3 3 5 6 3 6 2 4 5 9 7 6 7 11 8 8 7 7 7 8 4 5 2 3 3 7 7 12 13 13 16 14 9 10 8 8 9 12 6 9 15 9 15 11 11
4 4 1 6 6 1 5 6 7 8 5 7 5 5 8 10 8 8 8 8 8 8 6 6 5 5 5 9 11 9 8 9 9 7 6 2 11 22 11 13 10 11 11 5 11
Wind_Direction
346 343 340 338 336 335 332 330 328 325 323 320 318 320 325 328 317 236 244 227 179 172 172 189 186 231 231 176 118 150 82 291 235 0 341 132 117 194 139 131 146 189 141 142 158
343 340 337 335 333 331 329 326 324 323 321 319 317 318 323 331 300 261 232 154 146 159 176 207 197 218 237 220 132 118 65 273 252 142 252 169 149 150 134 115 111 121 129 143 146
340 337 335 333 331 328 326 323 320 319 319 317 316 316 320 322 284 243 143 159 179 181 254 243 252 220 238 242 148 171 168 233 266 274 252 220 157 128 110 128 139 140 143 147 157
338 335 333 331 329 325 323 321 317 316 317 315 315 315 315 274 312 75 163 179 174 200 227 239 258 258 246 257 148 147 189 191 270 275 269 170 153 141 137 146 141 141 149 148 169
336 334 331 329 327 323 320 319 316 314 314 315 316 317 317 236 249 156 147 161 159 166 200 219 242 240 245 248 198 162 200 235 232 252 272 125 152 109 125 133 135 142 152 159 174
333 330 328 326 324 322 318 316 313 310 310 315 315 315 253 254 211 153 181 168 209 192 200 234 249 231 274 277 275 197 204 254 277 265 261 101 145 117 134 140 139 150 159 174 181
331 330 327 324 322 320 317 314 311 306 304 313 307 263 264 242 295 149 205 190 223 184 238 240 253 265 249 283 275 266 226 174 255 257 136 142 116 147 152 141 144 154 164 186 187
330 329 325 322 320 318 316 311 306 299 295 306 312 238 254 254 244 263 235 265 225 210 218 257 270 271 270 291 322 287 297 258 263 226 154 109 164 161 146 144 150 158 168 188 188
330 328 325 322 321 319 317 307 297 288 274 269 241 237 263 202 248 228 244 247 220 234 260 261 0 234 273 254 320 283 233 236 263 229 142 118 147 160 155 153 159 163 173 182 183
329 326 325 323 322 323 320 298 281 315 225 213 261 268 265 250 200 184 216 232 251 205 238 227 8 276 258 181 209 234 214 247 237 244 198 142 162 169 160 159 166 168 169 178 178
328 327 324 323 321 324 336 340 333 62 229 231 265 255 310 127 76 315 307 208 239 217 221 209 174 222 231 227 248 259 268 235 236 263 211 138 140 169 155 123 169 174 175 176 171
329 327 325 324 320 318 284 275 29 269 302 277 261 257 286 311 301 208 201 239 229 235 206 252 220 236 222 228 232 252 264 270 299 86 75 135 153 172 181 160 151 176 177 184 164
327 327 327 326 319 297 216 15 281 307 275 287 239 222 229 171 245 235 180 210 207 241 215 216 241 224 248 234 232 241 247 270 262 104 112 106 4 355 333 97 44 180 176 183 191
326 327 328 331 326 338 318 2 324 323 308 248 177 231 141 208 250 253 173 194 234 214 236 223 234 246 229 252 231 243 239 250 271 60 163 165 217 292 163 160 124 130 305 208 190
324 325 326 323 301 300 335 312 323 2 349 141 163 109 213 201 91 203 107 221 253 257 209 234 248 241 245 226 250 243 251 261 254 161 122 349 139 256 200 199 177 172 200 241 188
321 321 332 346 205 254 287 312 319 296 249 140 151 188 212 224 269 116 179 256 302 291 286 252 247 239 240 251 218 247 273 316 318 211 189 177 228 170 195 229 216 177 181 218 189
320 313 309 289 247 311 311 312 283 247 6 117 224 172 197 221 224 192 180 197 215 238 286 289 253 261 247 247 224 256 161 319 327 329 219 228 186 204 205 203 215 189 187 202 203
322 313 234 214 241 285 306 314 267 309 7 32 3 348 308 298 203 185 228 207 214 235 272 230 279 237 258 199 206 219 176 169 211 219 232 244 254 253 199 199 208 220 159 146 39
320 294 235 231 228 255 317 275 337 18 21 355 331 310 283 276 37 323 256 239 26 9 201 17 304 343 270 257 189 269 253 225 269 267 301 220 260 53 136 192 196 192 147 124 88
318 283 257 245 189 230 262 270 28 44 3 345 317 318 323 1 11 205 259 28 98 54 44 355 328 310 307 292 235 179 240 276 283 248 271 262 247 217 179 193 198 192 165 130 133
250 283 134 156 155 224 237 267 78 92 29 350 359 330 338 355 47 308 18 27 13 11 27 351 314 294 334 289 192 233 247 272 293 175 189 284 279 313 189 81 69 89 163 167 177
309 274 166 200 216 218 246 35 292 51 13 12 304 317 357 355 338 345 63 50 16 334 2 51 269 289 282 303 306 215 213 203 165 282 235 176 260 41 87 80 11 39 4 287 195
311 274 209 151 271 326 224 254 62 45 17 12 346 9 5 347 349 345 88 71 34 49 44 338 308 292 323 328 336 220 235 218 218 256 247 138 249 73 85 94 4 66 2 239 265
286 291 262 206 353 10 10 335 116 76 67 46 337 328 331 317 306 300 324 148 72 85 137 181 275 298 267 312 322 321 320 242 225 228 261 213 145 102 139 111 133 35 76 2 325
238 311 11 346 15 337 15 340 346 103 37 64 330 9 22 334 353 9 6 350 182 150 153 237 267 328 317 326 318 313 315 313 237 245 234 279 163 175 179 145 135 93 74 39 323
300 358 343 295 4 293 157 44 322 81 29 16 2 14 349 33 26 350 0 1 332 346 224 238 281 312 305 298 294 299 301 304 260 254 279 262 33 112 60 31 51 45 67 40 326
350 336 257 287 263 250 35 45 63 24 109 75 2 0 27 13 344 321 314 301 298 315 343 2 11 344 276 290 312 307 281 300 325 259 269 275 139 107 50 54 54 48 49 28 5